Weather History for KPIT - May, 2013

Change the Weather History Date:

Thursday, May 16, 2013

  Actual Average Record
Temperature  
Mean Temperature 69 °F 60 °F  
Max Temperature 78 °F 71 °F 92 °F (1900)
Min Temperature 60 °F 49 °F 32 °F (1984)
Degree Days  
Heating Degree Days 0 6  
Month to date heating degree days 87 127  
Since 1 July heating degree days 5481 5603  
Cooling Degree Days 4 1  
Month to date cooling degree days 10 15  
Year to date cooling degree days 27 25  
Growing Degree Days 20 (Base 50)    
Moisture  
Dew Point 53 °F    
Average Humidity 61    
Maximum Humidity 93    
Minimum Humidity 28    
Precipitation  
Precipitation 0.37 in 0.13 in 1.18 in (1889)
Month to date precipitation 1.06 1.89  
Year to date precipitation 11.07 13.04  
Snow  
Snow 0.00 in 0.00 in T in (1893)
Month to date snowfall 0.0 0.0  
Since 1 July snowfall 57.4 41.4  
Snow Depth 0.00 in    
Sea Level Pressure  
Sea Level Pressure 29.88 in    
Wind  
Wind Speed 6 mph (West)    
Max Wind Speed 14 mph    
Max Gust Speed 20 mph    
Visibility 8 miles    
Events Rain , Thunderstorm    
T = Trace of Precipitation, MM = Missing Value Source: NWS Daily Summary

Daily Weather History Graph

Daily Weather History Graph

Search for Another Location

Airport or City:

Trip Planner

Search our weather history database for the weather conditions in past years. The results will help you decide how hot, cold, wet, or windy it might be!

Date:

Astronomy

May. 16, 2013 Rise Set
Actual Time 6:03 AM EDT 8:31 PM EDT
Civil Twilight 5:32 AM EDT 9:02 PM EDT
Nautical Twilight 4:53 AM EDT 9:41 PM EDT
Astronomical Twilight 4:10 AM EDT 10:24 PM EDT
Moon 11:35 AM EDT (5/16) 12:51 AM EDT (5/16)
Length of Visible Light 15h 30m
Length of Day
14h 28m
Waxing Crescent, 35% of the Moon is Illuminated
May 16
Waxing Crescent
May 18
First Quarter
May 25
Full
May 31
Last Quarter
Jun 8
New

Hourly Weather History & Observations

Time (EDT) Temp. Dew Point Humidity Pressure Visibility Wind Dir Wind Speed Gust Speed Precip Events Conditions
12:51 AM 66.9 °F 60.1 °F 79% 29.79 in 10.0 mi Calm Calm - 0.01 in   Mostly Cloudy
1:51 AM 66.9 °F 60.1 °F 79% 29.80 in 9.0 mi WSW 4.6 mph - 0.01 in   Overcast
2:09 AM 68.0 °F 59.0 °F 73% 29.80 in 4.0 mi WSW 5.8 mph - 0.00 in Rain , Thunderstorm Thunderstorms and Rain
2:51 AM 66.9 °F 57.0 °F 70% 29.81 in 6.0 mi West 9.2 mph - 0.03 in Rain , Thunderstorm Thunderstorms and Rain
3:24 AM 62.6 °F 57.2 °F 82% 29.80 in 6.0 mi WNW 8.1 mph - 0.09 in Rain Light Rain
3:51 AM 61.0 °F 57.9 °F 90% 29.82 in 5.0 mi West 6.9 mph - 0.15 in Rain , Thunderstorm Light Thunderstorms and Rain
4:34 AM 62.6 °F 60.8 °F 94% 29.82 in 5.0 mi WSW 5.8 mph - 0.16 in Rain Light Rain
4:51 AM 63.0 °F 60.1 °F 90% 29.82 in 5.0 mi SW 6.9 mph - 0.17 in Rain Rain
5:51 AM 63.0 °F 60.1 °F 90% 29.82 in 6.0 mi WSW 4.6 mph - 0.01 in   Mostly Cloudy
6:51 AM 63.0 °F 60.1 °F 90% 29.84 in 5.0 mi SW 6.9 mph - N/A   Mostly Cloudy
7:26 AM 62.6 °F 60.8 °F 94% 29.86 in 5.0 mi WSW 5.8 mph - N/A   Overcast
7:51 AM 64.0 °F 60.1 °F 87% 29.86 in 5.0 mi WSW 5.8 mph - N/A   Mostly Cloudy
8:51 AM 64.9 °F 60.1 °F 84% 29.88 in 7.0 mi WSW 6.9 mph - N/A   Mostly Cloudy
9:51 AM 66.9 °F 59.0 °F 76% 29.89 in 7.0 mi WNW 10.4 mph 16.1 mph N/A   Mostly Cloudy
10:51 AM 70.0 °F 57.9 °F 65% 29.90 in 10.0 mi West 8.1 mph - N/A   Scattered Clouds
11:51 AM 73.9 °F 53.1 °F 48% 29.91 in 10.0 mi NW 10.4 mph - N/A   Mostly Cloudy
12:51 PM 77.0 °F 46.0 °F 33% 29.90 in 10.0 mi Variable 3.5 mph - N/A   Mostly Cloudy
1:51 PM 75.9 °F 46.0 °F 35% 29.91 in 10.0 mi West 6.9 mph - N/A   Mostly Cloudy
2:51 PM 75.9 °F 45.0 °F 33% 29.91 in 10.0 mi Variable 6.9 mph - N/A   Mostly Cloudy
3:51 PM 77.0 °F 45.0 °F 32% 29.90 in 10.0 mi WSW 6.9 mph - N/A   Scattered Clouds
4:51 PM 77.0 °F 44.1 °F 31% 29.91 in 10.0 mi West 5.8 mph - N/A   Scattered Clouds
5:51 PM 78.1 °F 43.0 °F 29% 29.91 in 10.0 mi WNW 8.1 mph 18.4 mph N/A   Scattered Clouds
6:51 PM 77.0 °F 44.1 °F 31% 29.91 in 10.0 mi West 8.1 mph - N/A   Scattered Clouds
7:51 PM 75.0 °F 43.0 °F 32% 29.93 in 10.0 mi WSW 4.6 mph - N/A   Scattered Clouds
8:51 PM 71.1 °F 45.0 °F 39% 29.95 in 10.0 mi WSW 5.8 mph - N/A   Scattered Clouds
9:51 PM 68.0 °F 48.0 °F 49% 29.97 in 10.0 mi WSW 4.6 mph - N/A   Scattered Clouds
10:51 PM 64.0 °F 54.0 °F 70% 29.98 in 10.0 mi West 4.6 mph - N/A   Partly Cloudy
11:51 PM 64.9 °F 54.0 °F 68% 29.99 in 10.0 mi NW 3.5 mph - N/A   Partly Cloudy